Location: Tierra del Sol
(32.6128°N, 116.3319°W)
Time: 01:08:35
(UTC-07:00)

Vanguard 3 - All Passes

Search period start: 19 July 2018 00:00
Search period end: 29 July 2018 00:00
Orbit: 508 x 3264 km, 33.3° (Epoch: 18 July)

Date Brightness Start Highest point End Pass type
(mag) Time Alt. Az. Time Alt. Az. Time Alt. Az.
19 Jul - 01:12:13 10° WSW 01:14:21 13° SW 01:16:15 10° S night (unlit)
19 Jul - 14:53:01 10° SSW 15:07:20 27° SE 15:18:28 10° E daylight
19 Jul - 17:05:38 10° SW 17:22:33 56° SSE 17:32:48 10° E daylight
19 Jul - 19:22:47 10° WSW 19:36:48 87° S 19:44:21 10° E daylight
19 Jul - 21:40:23 10° W 21:49:53 90° SW 21:55:11 10° E visible
19 Jul - 23:56:04 10° W 00:01:19 32° SSW 00:05:01 10° SSE visible
20 Jul - 13:40:45 10° S 13:51:15 17° SE 14:00:34 10° ESE daylight
20 Jul - 15:49:31 10° SSW 16:06:43 43° SSE 16:18:30 10° E daylight
20 Jul - 18:05:11 10° WSW 18:21:42 75° SSE 18:30:59 10° E daylight
20 Jul - 20:23:20 10° W 20:35:34 85° N 20:42:09 10° E visible
20 Jul - 22:40:10 10° W 22:48:00 62° SSW 22:52:39 10° ESE visible
21 Jul - 00:57:20 10° WSW 00:58:28 11° SW 00:59:33 10° SSW night (unlit)
21 Jul - 14:34:39 10° SSW 14:50:36 32° SE 15:03:09 10° E daylight
21 Jul - 16:48:00 10° SW 17:06:03 62° SSE 17:17:13 10° E daylight
21 Jul - 19:05:38 10° W 19:20:45 90° N 19:28:56 10° E daylight
21 Jul - 21:23:40 10° W 21:34:08 85° SSW 21:39:52 10° ESE visible
21 Jul - 23:39:57 10° W 23:45:31 29° SW 23:49:22 10° SSE visible
22 Jul - 13:21:42 10° S 13:34:27 21° SE 13:45:52 10° E daylight
22 Jul - 15:31:41 10° SW 15:50:00 49° SSE 16:02:52 10° E daylight
22 Jul - 17:47:50 10° WSW 18:05:21 81° SSE 18:15:26 10° E daylight
22 Jul - 20:06:22 10° W 20:19:40 86° N 20:26:47 10° E visible
22 Jul - 22:23:39 10° W 22:32:14 56° SSW 22:37:13 10° SE visible
23 Jul - 12:14:03 10° SSE 12:18:25 11° SE 12:22:42 10° ESE daylight
23 Jul - 14:16:38 10° SSW 14:33:42 37° SE 14:47:33 10° E daylight
23 Jul - 16:30:28 10° SW 16:49:26 69° SSE 17:01:33 10° ENE daylight
23 Jul - 18:48:28 10° W 19:04:36 88° N 19:13:28 10° E daylight
23 Jul - 21:06:49 10° W 21:18:18 81° SSW 21:24:30 10° ESE visible
23 Jul - 23:23:46 10° W 23:29:37 25° SW 23:33:39 10° SSE visible
24 Jul - 13:03:16 10° S 13:17:30 25° SE 13:30:35 10° E daylight
24 Jul - 15:14:03 10° SW 15:33:07 55° SSE 15:47:04 10° E daylight
24 Jul - 17:30:31 10° WSW 17:48:56 85° SSE 17:59:50 10° E daylight
24 Jul - 19:49:18 10° W 20:03:41 88° N 20:11:24 10° E daylight
24 Jul - 22:07:00 10° W 22:16:21 51° SSW 22:21:44 10° SE visible
25 Jul - 11:53:10 10° SSE 12:01:33 14° SE 12:09:56 10° ESE daylight
25 Jul - 13:58:53 10° SSW 14:16:40 42° SE 14:31:43 10° E daylight
25 Jul - 16:13:05 10° WSW 16:32:43 74° SSE 16:45:47 10° ENE daylight
25 Jul - 18:31:17 10° W 18:48:22 87° N 18:57:57 10° E daylight
25 Jul - 20:49:53 10° WNW 21:02:22 76° SSW 21:09:06 10° ESE visible
25 Jul - 23:07:31 10° W 23:13:37 23° SW 23:17:50 10° S visible
26 Jul - 12:45:17 10° S 13:00:25 29° SE 13:14:55 10° E daylight
26 Jul - 14:56:37 10° SW 15:16:09 61° SSE 15:31:09 10° ENE daylight
26 Jul - 17:13:16 10° WSW 17:32:24 88° S 17:44:10 10° E daylight
26 Jul - 19:32:11 10° W 19:47:35 89° SSW 19:55:57 10° E daylight
26 Jul - 21:50:15 10° W 22:00:21 46° SSW 22:06:10 10° SE visible
27 Jul - 11:34:09 10° SSE 11:44:33 17° SE 11:55:17 10° E daylight
27 Jul - 13:41:24 10° SSW 13:59:31 47° SE 14:15:41 10° E daylight
27 Jul - 15:55:49 10° WSW 16:15:53 79° SSE 16:29:55 10° ENE daylight
27 Jul - 18:14:06 10° W 18:32:03 87° N 18:42:24 10° E daylight
27 Jul - 20:32:50 10° WNW 20:46:19 71° SSW 20:53:37 10° ESE visible
27 Jul - 22:51:13 10° W 22:57:31 21° SW 23:01:56 10° S visible
28 Jul - 12:27:39 10° SSW 12:43:14 33° SE 12:58:56 10° E daylight
28 Jul - 14:39:23 10° SW 14:59:04 66° SSE 15:15:06 10° ENE daylight
28 Jul - 16:56:05 10° W 17:15:48 90° N 17:28:26 10° E daylight
28 Jul - 19:15:00 10° W 19:31:24 86° SSW 19:40:27 10° ESE daylight
28 Jul - 21:33:24 10° W 21:44:14 42° SW 21:50:33 10° SSE visible
